Weather History for KEKN - October, 2010

Change the Weather History Date:

Friday, October 15, 2010

  Actual Average Record
Temperature  
Mean Temperature 45 °F 51 °F  
Max Temperature 53 °F 64 °F 82 °F (1962)
Min Temperature 36 °F 38 °F 21 °F (1939)
Degree Days  
Heating Degree Days 20 14  
Month to date heating degree days 179 171  
Since 1 July heating degree days 284 331  
Cooling Degree Days 0 0  
Month to date cooling degree days 0 0  
Year to date cooling degree days 715 471  
Moisture  
Dew Point 39 °F    
Average Humidity 83    
Maximum Humidity 100    
Minimum Humidity 66    
Precipitation  
Precipitation 0.17 in 0.09 in 3.71 in (1954)
Month to date precipitation 1.87 1.39  
Year to date precipitation 33.61 37.83  
Snow  
Snow 0.00 in - - ()
Month to date snowfall 0.0  
Since 1 September snowfall 0.0  
Snow Depth 0.00 in    
Sea Level Pressure  
Sea Level Pressure 29.89 in    
Wind  
Wind Speed 6 mph (WNW)    
Max Wind Speed 16 mph    
Max Gust Speed 24 mph    
Visibility 9 miles    
Events Rain , Thunderstorm    
T = Trace of Precipitation, MM = Missing Value Source: NWS Daily Summary

Daily Weather History Graph

Daily Weather History Graph

Search for Another Location

Airport or City:

Trip Planner

Search our weather history database for the weather conditions in past years. The results will help you decide how hot, cold, wet, or windy it might be!

Date:

Astronomy

Oct. 15, 2010 Rise Set
Actual Time 7:28 AM EDT 6:40 PM EDT
Civil Twilight 7:01 AM EDT 7:07 PM EDT
Nautical Twilight 6:30 AM EDT 7:38 PM EDT
Astronomical Twilight 6:00 AM EDT 8:09 PM EDT
Moon 2:58 PM EDT (10/15) 12:24 AM EDT (10/15)
Length of Visible Light 12h 05m
Length of Day
11h 12m
First Quarter, 57% of the Moon is Illuminated
Oct 15
First Quarter
Oct 22
Full
Oct 30
Last Quarter
Nov 6
New
Nov 13
First Quarter

Hourly Weather History & Observations

Time (EDT) Temp. Windchill Dew Point Humidity Pressure Visibility Wind Dir Wind Speed Gust Speed Precip Events Conditions
12:51 AM 39.0 °F - 35.1 °F 86% 29.90 in 10.0 mi Calm Calm - N/A   Clear
1:51 AM 39.0 °F 35.7 °F 36.0 °F 89% 29.89 in 10.0 mi Variable 4.6 mph - N/A   Overcast
2:51 AM 42.1 °F - 37.0 °F 82% 29.88 in 10.0 mi Calm Calm - 0.00 in Rain Light Rain
3:51 AM 39.0 °F - 37.0 °F 93% 29.86 in 10.0 mi Calm Calm - 0.00 in   Overcast
4:51 AM 36.0 °F - 35.1 °F 97% 29.85 in 10.0 mi Calm Calm - N/A   Mostly Cloudy
5:51 AM 41.0 °F 39.0 °F 37.0 °F 86% 29.83 in 10.0 mi ESE 3.5 mph - N/A   Overcast
6:51 AM 39.9 °F 37.8 °F 37.9 °F 93% 29.83 in 10.0 mi NNE 3.5 mph - 0.00 in   Overcast
7:51 AM 43.0 °F - 37.9 °F 82% 29.83 in 10.0 mi Calm Calm - N/A   Overcast
8:51 AM 48.9 °F - 35.1 °F 59% 29.84 in 10.0 mi WSW 12.7 mph 21.9 mph 0.00 in Rain Light Rain
9:51 AM 46.9 °F - 37.0 °F 68% 29.84 in 10.0 mi SSW 5.8 mph 18.4 mph 0.00 in   Overcast
10:34 AM 46.4 °F 42.4 °F 39.2 °F 76% 29.82 in 10.0 mi South 8.1 mph - 0.00 in   Overcast
10:51 AM 46.0 °F 43.9 °F 39.0 °F 76% 29.84 in 10.0 mi SSW 4.6 mph - 0.00 in   Overcast
11:11 AM 46.4 °F 44.3 °F 39.2 °F 76% 29.81 in 10.0 mi SSW 4.6 mph - 0.00 in Rain Light Rain
11:51 AM 48.0 °F - 39.9 °F 74% 29.84 in 10.0 mi SSW 5.8 mph - 0.00 in   Overcast
12:51 PM 50.0 °F - 39.9 °F 68% 29.85 in 10.0 mi West 5.8 mph - N/A   Overcast
1:51 PM 51.1 °F - 41.0 °F 68% 29.85 in 10.0 mi WNW 10.4 mph - N/A   Overcast
2:31 PM 50.0 °F - 39.2 °F 66% 29.81 in 10.0 mi WSW 10.4 mph 18.4 mph N/A   Overcast
2:51 PM 50.0 °F - 39.9 °F 68% 29.84 in 10.0 mi WNW 9.2 mph - 0.00 in Rain Light Rain
3:51 PM 50.0 °F - 42.1 °F 74% 29.87 in 10.0 mi WSW 8.1 mph 21.9 mph 0.01 in Rain Light Rain
4:13 PM 48.2 °F - 42.8 °F 82% 29.84 in 4.0 mi West 8.1 mph - 0.02 in Rain , Thunderstorm Rain
4:21 PM 48.2 °F - 42.8 °F 82% 29.85 in 2.5 mi WNW 10.4 mph 19.6 mph 0.06 in Rain , Thunderstorm Rain
4:23 PM 48.2 °F - 42.8 °F 82% 29.85 in 3.0 mi West 9.2 mph 19.6 mph 0.06 in Rain Light Rain
4:51 PM 46.9 °F - 41.0 °F 80% 29.91 in 6.0 mi NNW 5.8 mph - 0.12 in Rain Light Rain
5:00 PM 46.4 °F 45.2 °F 42.8 °F 87% 29.87 in 10.0 mi North 3.5 mph - 0.00 in Thunderstorm Overcast
5:40 PM 48.2 °F - 39.2 °F 71% 29.89 in 10.0 mi NNW 9.2 mph 21.9 mph 0.00 in   Mostly Cloudy
5:51 PM 48.0 °F - 39.9 °F 74% 29.94 in 10.0 mi NNW 10.4 mph 18.4 mph 0.00 in Rain Light Rain
6:13 PM 46.4 °F 42.9 °F 42.8 °F 87% 29.93 in 3.0 mi NW 6.9 mph 18.4 mph 0.02 in Rain , Thunderstorm Heavy Rain
6:15 PM 46.4 °F 42.4 °F 42.8 °F 87% 29.93 in 2.5 mi WNW 8.1 mph - 0.02 in Rain , Thunderstorm Rain
6:25 PM 46.4 °F 41.9 °F 42.8 °F 87% 29.93 in 5.0 mi WNW 9.2 mph - 0.04 in Rain Rain
6:42 PM 46.4 °F 41.9 °F 42.8 °F 87% 29.94 in 10.0 mi WNW 9.2 mph - 0.04 in   Overcast
6:51 PM 46.0 °F 42.5 °F 41.0 °F 83% 29.98 in 10.0 mi WNW 6.9 mph 16.1 mph 0.04 in   Mostly Cloudy
7:51 PM 46.0 °F 43.9 °F 39.9 °F 79% 30.01 in 10.0 mi Variable 4.6 mph - N/A   Overcast
8:51 PM 46.0 °F 41.4 °F 39.0 °F 76% 30.02 in 10.0 mi WNW 9.2 mph 18.4 mph N/A   Partly Cloudy
9:51 PM 45.0 °F 40.1 °F 39.0 °F 80% 30.04 in 10.0 mi WNW 9.2 mph 18.4 mph N/A   Partly Cloudy
10:51 PM 45.0 °F 40.6 °F 37.9 °F 76% 30.06 in 10.0 mi NW 8.1 mph - N/A   Partly Cloudy
11:51 PM 45.0 °F 39.7 °F 37.0 °F 74% 30.06 in 10.0 mi NW 10.4 mph 19.6 mph N/A   Clear